This is the latest recevied weather packets stored in our database for station/object KC0RKM-13. If no packets are shown the sender has not sent any weather packets the latest 10 day(s).
| Time | Temp. | Humidity | Pressure | Rain* | Wind** | Luminosity | Snow |
|---|---|---|---|---|---|---|---|
| 1788244223 | 26.67° C | 52% | 1014.3 hPa | 0 mm | - | - | - |
| 1788243603 | 26.67° C | 53% | 1014.3 hPa | 0 mm | - | - | - |
| 1788243004 | 27.22° C | 52% | 1014.4 hPa | 0 mm | - | - | - |
| 1788242404 | 27.22° C | 52% | 1014.5 hPa | 0 mm | - | - | - |
| 1788241804 | 27.22° C | 52% | 1014.4 hPa | 0 mm | - | - | - |
| 1788241203 | 27.22° C | 52% | 1014.2 hPa | 0 mm | - | - | - |
| 1788240603 | 27.78° C | 51% | 1014.3 hPa | 0 mm | - | - | - |
| 1788240004 | 27.78° C | 51% | 1014.3 hPa | 0 mm | - | - | - |
| 1788239403 | 27.78° C | 50% | 1014.1 hPa | 0 mm | - | - | - |
| 1788238803 | 27.78° C | 51% | 1014.2 hPa | 0 mm | - | - | - |
| 1788238203 | 27.22° C | 52% | 1014.2 hPa | 0 mm | - | - | - |
| 1788237604 | 27.22° C | 52% | 1014.2 hPa | 0 mm | - | - | - |
| 1788237003 | 27.78° C | 49% | 1014.2 hPa | 0 mm | - | - | - |
| 1788236403 | 28.33° C | 47% | 1013.9 hPa | 0 mm | - | - | - |
| 1788235804 | 28.89° C | 46% | 1013.8 hPa | 0 mm | - | - | - |
| 1788235204 | 28.89° C | 46% | 1013.9 hPa | 0 mm | - | - | - |
| 1788234604 | 28.89° C | 46% | 1013.6 hPa | 0 mm | - | - | - |
| 1788234004 | 28.89° C | 46% | 1013.7 hPa | 0 mm | - | - | - |
| 1788233403 | 28.89° C | 47% | 1013.4 hPa | 0 mm | - | - | - |
| 1788232803 | 28.89° C | 47% | 1013.4 hPa | 0 mm | - | - | - |
| 1788232204 | 28.89° C | 47% | 1013.2 hPa | 0 mm | - | - | - |
| 1788231603 | 29.44° C | 48% | 1013.3 hPa | 0 mm | - | - | - |
| 1788231003 | 29.44° C | 48% | 1013.4 hPa | 0 mm | - | - | - |
| 1788230404 | 29.44° C | 48% | 1013.4 hPa | 0 mm | - | - | - |
| 1788229804 | 29.44° C | 50% | 1013.2 hPa | 0 mm | - | - | - |
* Rain latest hour (hover to see other rain measurements)
** Current wind speed in m/s (hover to see current wind gust speed)